Regional Weather Roundup
Issued by NWS State College, PA

Home | Current Version | Previous Version | Graphics & Text | Print | Product List | Glossary On
Versions: 1 2 3 4 5 6 7 8 9 10 11 12 13 14 15 16 17 18 19 20 21 22 23 24 25 26 27 28 29 30 31 32 33 34 35 36 37 38 39 40 41 42 43 44 45 46 47 48 49 50
000
ASUS41 KCTP 250903
RWRCTP

REGIONAL WEATHER ROUNDUP
NATIONAL WEATHER SERVICE STATE COLLEGE PA
500 AM EDT MON MAY 25 2015

Note: "fair" indicates few or no clouds below 12,000 feet with no
significant weather and/or obstructions to visibility.

* = STATION THAT DOES NOT REPORT PRECIPITATION /E.G. RAIN...SNOW...ETC/
    THUNDER OR FOG.

PAZ002>004-007>009-013>016-020>023-029>032-251000-
WESTERN PENNSYLVANIA

CITY           SKY/WX    TMP DP  RH WIND       PRES   REMARKS
ERIE           MOCLDY    66  43  43 S12       30.10F
MEADVILLE      PTCLDY    64  44  48 S3        30.14F
FRANKLIN*      PTCLDY    55  45  67 CALM      30.18S
NEW CASTLE     FAIR      59  50  72 CALM      30.16S
BEAVER COUNTY  NOT AVBL
BUTLER*        CLEAR     63  48  59 S6        30.19S
PITTSBURGH INT PTCLDY    60  50  69 S6        30.17S
PITTSBURGH     CLEAR     63  48  58 S10       30.18R
INDIANA*       CLEAR     55  52  88 CALM      30.24R
LATROBE        CLEAR     55  52  88 CALM      30.22R
WASHINGTON CO* CLEAR     54  50  87 CALM      30.21R
$$

PAZ004>006-010>012-017>019-024>028-033>037-041-042-045-046-049>053-251000-
CENTRAL PENNSYLVANIA

CITY           SKY/WX    TMP DP  RH WIND       PRES   REMARKS
BRADFORD       CLOUDY    53  47  79 SE3       30.21S
DUBOIS         CLOUDY    63  47  55 S5        30.20R
CLEARFIELD     CLOUDY    53  48  83 CALM      30.22R
JOHNSTOWN      CLEAR     61  49  64 SW8       30.23S
ALTOONA        CLEAR     55  48  77 CALM      30.22S
STATE COLLEGE  CLOUDY    59  48  67 CALM      30.20F
WILLIAMSPORT   CLOUDY    58  51  78 CALM      30.20F
SELINSGROVE    MOCLDY    57  53  86 CALM      30.21F
FT INDIANTOWN  FAIR      56  55  96 CALM      30.24S FOG
CAPITAL CITY   PTCLDY    59  56  89 CALM      30.23S
HARRISBURG     PTCLDY    63  56  78 E3        30.22S
YORK           CLEAR     65  56  72 CALM      30.22F
$$

PAZ038>040-043-044-047-048-054-055-060>062-067>071-251000-
EASTERN PENNSYLVANIA

CITY           SKY/WX    TMP DP  RH WIND       PRES   REMARKS
SCRANTON       CLOUDY    63  48  58 CALM      30.24S
MOUNT POCONO   CLOUDY    61  50  67 W5        30.27S
ALLENTOWN      CLOUDY    59  49  69 CALM      30.25S
QUAKERTOWN*    PTSUNNY   59  54  82 CALM      30.27S
READING        MOCLDY    65  56  72 SE5       30.23F
LANCASTER      PTCLDY    60  58  92 NE3       30.24S
COATESVILLE    MOSUNNY   61  59  94 CALM      30.27S
POTTSTOWN      MOCLDY    61  57  87 CALM      30.27S
BLUE BELL      MOCLDY    63  59  88 CALM      30.26S
DOYLESTOWN     MOCLDY    61  56  83 S3        30.25F
WILLOW GROVE   NOT AVBL
NORTH PHILA    MOCLDY    64  54  69 S3        30.28S
PHILADELPHIA   CLOUDY    64  56  75 SE6       30.27S
$$


USA.gov is the U.S. government's official web portal to all federal, state and local government web resources and services.